Location: Newark
(59.4564°N, 26.6917°E)
Time: 20:42:47
(UTC+00:00)

SR - Pass Details

Date: 23 November 2019
Orbit: 573 x 882 km, 66.7° (Epoch: 07 December)

Event Time Altitude Azimuth Distance (km) Brightness Sun altitude
Rises 10:36:11 0° 152° (SSE) 3,265 ? 9.9°
Reaches altitude 10° 10:40:10 10° 123° (ESE) 2,413 ? 9.8°
Maximum altitude 10:42:12 12° 101° (E) 2,301 ? 9.7°
Drops below altitude 10° 10:44:17 10° 80° (E) 2,478 ? 9.7°
Sets 10:48:29 0° 52° (NE) 3,465 ? 9.6°
